星链-4195 (STARLINK-4195 )

导读 | 豆包AI

STARLINK-4195是美国太空探索技术公司星链星座的卫星,于2022年6月17日发射入轨,属于星链互联网卫星组网项目的组成部分。星链系统旨在为全球提供低延迟、高速率的卫星互联网服务,该卫星承担着补充星座容量、覆盖全球网络节点的任务,目前已在轨运行近4年,服务全球各类互联网接入需求。

Basic Information
目录编号:
52870
目录名称:
STARLINK-4195
国际标识:
2022-062AS
轨道中心:
EARTH
卫星名称:
星链-4195
卫星全名:
星链-4195 (STARLINK-4195 )
卫星状态:
已陨落 最后检测时间 2026-02-13
发射日期:
2022-06-17 UTC
国别 :
美国 (US)
星等 :
--
Orbit Information
数据来源 国际轨道数据
星历时间: 2026-02-13T22:50:49+0800
轨道信息已过期29天
半长轴: 6538.042km
偏心率: 0.0002823
轨道倾角: 53.202°
近地点辐角 236.468°
升交点赤经 108.662°
平近点角 123.610°
近地点: 158.059km
远地点: 161.751km
周期: 87.686分钟
每日圈数: 16.422196
Detailed Information
固有亮度:
5
最大亮度:
2.5
卫星平台:
Starlink v1.5
覆盖范围:
全球
运营商:
太空探索技术公司
运营商所在国:
美国
制造商(研发单位):
太空探索技术公司
制造商所在国:
美国
使用方式:
暂无
Satellite Introduction
星链(Starlink)计划是由太空探索技术公司(SpaceX)提出的一个巨型低轨卫星互联网星座项目,计划在2019年至2024年间在太空搭建由约1.2万颗卫星组成的“星链”网络,其中1584颗将部署在地球上空550千米处的近地轨道,并从2020年开始工作。该卫星仍在工作。